Voltar ao catálogo

ORBASTRO-JEN1

AtivoCiênciaSSO
NORAD 69006·PAYLOAD·🇫🇮 Finland

Lançado May 3, 2026 de Vandenberg Space Force Base

Loading…

Próximas Passagens (próximas 24 horas)

TLE

AtualizadoSource: Space-Track

Época: Sep 14, 2026, 12:50 UTC

1 69006U 26100AC  26257.53534283  .00004988  00000-0  22929-3 0  9991
2 69006  97.3924 153.7013 0012138  54.3928 305.8437 15.20748766 20382

Acompanhe ORBASTRO-JEN1 em tempo real com AllMySat

Download on the App Store